Weather in Yezhovo

Russia / Mari El Republic     56°42′49″N   48°07′16″E
temp.,
°C
wind,
m/s
gust,
m/s
humid.,
%
clouds,
%
prec.,
mm/h
press.,
hPa
HPBL,
m
17 august, wed
wed1700:00+17ene22725 0.0 102515
03:00+16ene22775 0.0 102613
06:00+18e127460 0.0 102554
09:00+23e23565 0.0 1025583
12:00+26ene22465 0.0 10241769
15:00+26ene33458 0.0 10231835
18:00+22ene36643 0.0 1023138
21:00+18e34655 0.0 102455
18 august, thu
thu1800:00+16ese22685 0.0 102433
03:00+14e22713 0.0 102422
06:00+16e23715 0.0 102567
09:00+22e23514 0.0 1025473
12:00+25ene34460 0.0 10241389
15:00+25ene45474 0.0 10241726
18:00+22ne37650 0.0 1024214
21:00+18ene411720 0.0 1026287
19 august, fri
fri1900:00+15e310730 0.0 1027197
03:00+13ese36720 0.0 1028102
06:00+14e37690 0.0 1030181
09:00+19e46420 0.0 1031715
12:00+22e45330 0.0 10311338
15:00+23e45330 0.0 10301424
18:00+19ese22560 0.0 103019
21:00+14e22640 0.0 103216
20 august, sat
sat2000:00+13ese22650 0.0 103219
03:00+12ese22670 0.0 103310
06:00+14se11675 0.0 103316
09:00+20e12475 0.0 1033415
12:00+24ese11374 0.0 10321124
15:00+25e11360 0.0 10311250
18:00+21nne11541 0.0 103012
21:00+17ene11601 0.0 103111
21 august, sun
sun2100:00+15n11651 0.0 103011
03:00+15n12680 0.0 103111
06:00+16nne22690 0.0 103138
09:00+22ne22510 0.0 1030394
12:00+26ne22451 0.0 10291109
15:00+27ne23405 0.0 10282010
18:00+24nne22595 0.0 102713
21:00+19nne11695 0.0 102811